Page, AZ

2:49 PM MDT on August 29, 2016 (GMT -0600)
grandview st | | Change Station

Elev 4275 ft 36.93 °N, 111.46 °W | Updated 14 minutes ago

Clear
Clear
87.4 °F
Feels Like 84 °F
N
5.8
Wind Variable Wind from NE

Today
High -- | Low -- °F
--% Chance of Precip.
Yesterday
High -- | Low -- °F
Precip. -- in
Pressure 29.98 in
Visibility 10.0 miles
Clouds Clear
Heat Index 84 °F
Dew Point 43 °F
Humidity 21%
Rainfall 0.00 in
Snow Depth Not available.
6:54 AM 7:57 PM
Waning Crescent, 7% visible
METAR KPGA 291953Z AUTO VRB04KT 10SM CLR 31/07 A3018 RMK AO2 SLP152 T03060067 TSNO
Pressure 29.98 in
Visibility 10.0 miles
Clouds Clear
Heat Index 84 °F
Dew Point 43 °F
Humidity 21%
Rainfall 0.00 in
Snow Depth Not available.
6:54 AM 7:57 PM
Waning Crescent, 7% visible
METAR KPGA 291953Z AUTO VRB04KT 10SM CLR 31/07 A3018 RMK AO2 SLP152 T03060067 TSNO

10-Day Weather Forecast

Almanac

Astronomy

Aug. 29, 2016 Rise Set
Actual Time
Civil Twilight
Nautical Twilight
Astronomical Twilight
Moon
Length of Visible Light
Length of Day
Tomorrow will be .
, % of the Moon is Illuminated

Today's Extremes

State Highs State Lows

Community

WunderPhotos

Upload Photos

1,935,676 photos uploaded!

WunderBlog® & News

Nearby

Air Quality

  Air Quality AQ Index Pollutant
Not available.

Snow Depth

Station Depth Elevation

Earthquake Activity

City Distance Mag. Time & Date
Minimum magnitude displayed is 2.5.

Coastal Water Temperatures

Place Temperature

Stations

Nearby Weather Stations

Station Location Temp. Windchill Dew Point Humidity Wind Precip. Elev Updated Type
                   

Watches & Warnings

There are currently no watches in effect.